Wetbulb
59.91 59.60 59.87 60.25 60.89 60.52 60.38 61.09 61.27 61.00 61.36 61.59 61.76 60.63 59.87 59.76 60.17 59.34 58.36 60.74 60.40 60.28 59.85 59.19 58.40 57.69 57.84 59.77 58.83 57.18 56.70 56.84 57.22 58.99 60.54 61.02 60.72 61.26 61.58 61.09 61.58 60.33 58.44
59.76 60.29 60.27 60.47 60.18 59.73 60.43 61.05 61.39 60.90 61.35 61.51 61.33 61.07 61.58 62.29 60.04 59.03 59.94 61.58 60.02 58.62 59.12 59.67 57.26 59.62 58.74 57.88 58.93 56.56 55.90 57.08 58.55 57.42 59.15 59.66 59.43 59.99 59.73 58.83 59.21 59.64 59.01
60.41 60.49 60.47 60.22 60.02 59.70 60.09 60.79 61.13 60.98 60.96 61.39 60.67 61.15 60.38 61.67 61.43 59.98 60.87 61.25 59.92 58.36 58.31 57.52 58.63 59.51 58.65 58.09 57.74 56.84 56.78 58.02 59.03 58.52 57.58 58.83 58.81 59.27 58.32 58.44 58.02 58.38 59.10
60.54 60.60 61.97 60.64 59.96 60.00 59.99 60.51 60.94 61.13 60.68 60.81 60.61 61.06 61.31 61.57 60.88 61.27 60.82 60.02 58.75 59.04 60.01 59.11 60.04 60.78 59.56 59.17 58.55 57.98 57.64 58.92 58.85 58.14 57.30 57.16 57.62 58.20 57.90 55.94 55.49 57.04 56.42
61.77 62.11 61.94 62.38 60.34 60.57 60.62 60.49 60.98 60.77 60.75 61.05 62.23 61.62 61.73 61.88 61.79 60.47 60.66 60.12 59.67 59.41 60.49 60.96 60.61 60.62 59.62 59.79 59.73 58.63 58.78 57.92 58.06 57.48 56.58 56.78 56.42 56.08 54.88 55.38 54.29 54.03 53.96
61.16 62.07 61.21 61.53 60.82 60.59 60.30 60.01 60.25 59.97 59.84 59.91 59.08 59.38 59.48 58.74 48.57 54.90 58.16 59.54 59.50 58.70 57.68 58.45 58.89 58.13 57.87 55.03 55.93 56.05 58.32 58.76 57.58 56.98 56.62 55.60 55.56 55.78 55.66 54.21 53.17 52.38 50.18
61.07 62.17 62.33 61.99 61.11 60.88 61.02 60.16 59.67 58.48 58.43 57.94 57.85 58.79 57.30 54.99 46.51 50.89 54.35 58.65 57.69 57.84 58.18 58.32 58.93 59.05 58.70 57.52 52.75 52.21 52.21 52.82 55.46 57.87 56.20 55.76 54.63 55.34 55.38 54.32 53.72 53.43 52.74
60.90 61.96 62.26 60.81 60.96 61.06 60.37 59.32 58.47 58.39 58.04 58.12 58.15 56.10 55.17 53.67 45.60 48.32 53.94 61.19 59.61 58.16 58.68 58.20 57.88 57.68 57.12 58.81 58.67 57.91 57.92 57.81 57.53 58.36 57.02 56.68 56.79 57.07 57.05 55.81 54.24 53.55 53.86
60.37 62.01 61.00 60.50 60.82 60.26 59.61 58.47 58.36 59.08 57.24 56.18 57.30 55.26 54.86 54.59 46.14 49.23 56.90 59.84 58.70 58.13 58.21 59.47 59.16 58.26 48.14 49.57 58.38 57.26 55.92 54.23 49.49 48.73 49.40 48.25 46.87 48.32 52.90 55.20 52.84 51.85 51.04
60.45 61.38 61.47 61.57 60.95 60.03 59.12 58.32 58.12 57.82 57.74 57.68 57.09 55.62 53.38 56.16 45.96 49.41 55.86 58.69 57.60 57.20 56.88 56.00 50.13 54.71 46.14 48.86 58.45 57.28 55.50 55.63 55.84 55.03 54.19 51.67 52.39 50.29 50.52 54.63 53.74 50.97 51.05
60.76 61.63 60.45 61.04 60.83 60.36 59.04 58.32 57.94 58.37 57.96 56.76 55.62 55.34 57.78 56.34 52.66 45.96 50.86 56.36 57.41 57.02 56.82 55.75 53.83 45.06 45.96 47.05 51.91 57.97 55.56 56.14 53.40 56.36 56.08 55.78 55.52 55.25 56.90 56.75 53.95 54.33 51.88
59.39 60.36 59.58 60.32 62.04 61.43 59.76 58.36 58.56 58.24 58.94 57.98 56.24 56.32 58.56 57.28 49.41 45.78 49.04 50.49 52.46 55.13 56.30 56.32 52.06 44.15 44.51 45.96 52.25 44.87 46.51 52.56 57.05 56.12 55.92 55.36 55.02 54.36 54.39 55.92 55.42 54.83 54.06
58.86 59.35 59.06 59.55 60.81 60.70 59.22 58.44 58.04 57.20 59.48 58.52 57.62 57.86 57.92 57.58 53.67 45.24 45.42 45.60 49.53 53.71 55.82 48.17 43.42 42.34 43.79 45.94 44.51 45.96 50.09 58.08 57.41 56.38 55.01 55.46 55.10 54.03 53.88 55.08 56.25 56.73 54.47
59.14 58.71 58.76 58.36 58.50 59.81 60.23 59.80 58.65 57.28 57.20 59.03 57.42 57.24 58.22 56.52 54.16 54.55 53.79 52.74 48.14 50.29 47.99 51.28 48.68 48.86 48.66 50.38 51.48 55.04 59.11 58.67 57.85 57.30 56.52 57.48 56.46 55.01 54.49 54.72 52.43 51.32 51.23
59.22 59.03 58.67 58.62 58.88 59.18 59.52 58.49 58.97 58.61 58.42 58.12 57.32 57.34 56.20 55.07 55.13 51.52 52.81 55.98 53.43 51.66 51.14 52.32 54.81 56.28 55.86 56.62 58.10 59.12 59.10 58.51 57.83 58.01 57.55 57.20 56.52 56.92 55.25 53.89 52.88 50.52 50.08
58.86 59.62 59.17 58.53 57.96 58.38 55.27 51.30 41.93 45.46 48.75 49.88 51.56 55.12 57.40 51.59 43.79 45.06 46.14 44.51 45.11 44.11 52.31 52.58 52.89 55.80 56.12 56.85 57.41 57.42 57.50 55.90 57.46 57.28 56.70 57.14 56.82 56.96 56.40 53.47 52.38 51.04 49.44
59.64 60.02 59.57 58.59 58.67 56.99 54.94 53.25 51.39 48.40 43.24 42.92 45.11 47.45 49.61 49.71 43.79 44.15 43.79 42.34 42.21 45.66 52.79 53.06 53.04 53.96 54.94 56.00 56.96 54.16 56.86 57.80 56.54 58.15 57.26 56.70 56.74 56.16 52.95 55.39 54.00 51.65 50.09
59.63 52.94 60.32 60.41 59.63 58.40 56.44 53.83 52.37 50.68 52.70 54.74 45.15 47.63 45.24 44.13 43.79 43.42 40.34 44.66 49.93 49.63 53.53 53.76 53.68 53.05 53.13 54.29 53.90 53.98 54.25 55.38 56.36 56.91 55.50 55.58 54.96 55.88 53.59 55.02 54.94 53.76 51.06
58.88 59.02 60.64 60.77 60.53 58.44 57.83 55.07 52.64 51.15 52.41 54.12 50.77 46.36 41.53 40.34 40.71 40.69 39.80 57.22 55.84 54.62 54.02 54.90 55.38 54.97 53.41 54.38 54.81 54.46 54.32 54.53 56.49 55.80 55.95 55.85 55.76 54.93 54.38 54.95 53.17 44.61 45.37
59.01 53.28 55.19 58.80 58.27 58.87 58.86 57.42 54.59 52.90 51.20 53.53 55.42 56.53 47.81 47.16 50.53 50.96 49.88 55.68 56.14 57.10 56.96 56.96 56.86 56.67 56.05 55.41 54.90 55.03 54.74 52.80 53.77 54.55 54.61 55.02 55.09 54.52 54.49 52.51 51.22 50.90 48.59
59.19 56.19 50.52 58.26 57.84 58.09 59.04 58.90 57.88 56.12 54.54 52.52 53.74 53.43 44.31 55.02 55.56 55.15 54.43 54.75 57.21 57.68 57.72 58.09 58.29 57.63 57.64 57.15 56.87 56.00 55.37 55.33 55.42 55.60 55.62 54.23 53.79 52.72 53.09 52.25 51.62 50.96 50.62
59.49 58.27 57.50 58.13 58.40 58.03 57.50 59.14 58.86 58.72 57.54 56.26 54.09 51.46 38.35 55.11 56.76 56.78 56.61 56.72 57.79 58.81 59.47 59.07 59.12 59.12 59.42 58.61 57.62 56.38 56.22 55.99 55.92 55.98 56.06 55.77 55.26 54.48 53.82 52.78 51.87 50.90 49.93
59.67 58.63 58.20 58.75 58.08 52.16 53.07 56.64 58.29 57.68 58.99 58.58 57.06 54.56 48.52 53.15 56.38 57.10 57.27 57.72 58.17 58.67 59.55 59.19 59.55 59.63 60.09 60.00 59.51 58.86 57.12 56.31 56.16 56.70 56.31 56.03 55.27 54.92 54.65 53.32 52.92 51.72 49.40
58.35 58.56 58.29 58.17 58.15 56.20 56.92 56.40 56.71 50.84 56.95 59.05 58.44 56.48 52.71 54.17 56.54 56.96 57.78 58.23 58.06 58.48 59.12 59.59 59.57 59.61 60.28 59.95 59.65 59.56 59.42 59.10 57.83 56.33 56.80 56.29 55.47 51.63 54.82 54.12 53.75 53.40 51.19
59.84 57.94 57.86 57.73 57.38 56.41 55.76 55.65 56.40 55.86 56.15 56.84 58.53 57.64 54.96 55.21 55.99 56.06 56.52 57.06 57.37 57.68 58.00 58.93 59.51 59.82 57.19 56.62 57.98 57.76 52.38 42.74 53.99 50.34 56.02 56.43 55.78 55.05 54.34 54.70 53.89 51.69 46.27
60.22 60.69 59.13 57.91 57.81 57.14 56.86 55.99 56.40 56.35 56.22 56.94 56.23 57.14 56.32 55.68 55.91 56.04 55.39 55.17 55.49 56.10 56.45 57.00 57.52 57.63 58.18 58.29 56.62 51.07 42.26 40.27 43.74 39.86 54.12 55.86 55.20 54.81 54.91 54.30 53.19 52.07 47.69
MSLP
1002.94 1003.51 1003.92 1004.23 1004.44 1004.69 1005.09 1005.27 1005.35 1005.43 1005.51 1005.72 1005.91 1006.28 1006.59 1006.77 1006.89 1007.05 1007.29 1007.34 1007.51 1007.72 1007.87 1007.77 1007.85 1007.95 1008.30 1008.12 1008.26 1008.45 1008.98 1009.32 1010.28 1010.98 1011.21 1011.62 1011.86 1012.02 1012.02 1012.31 1012.71 1013.87 1015.11
1002.98 1003.54 1003.93 1004.28 1004.51 1004.86 1005.15 1005.23 1005.30 1005.40 1005.50 1005.70 1005.90 1006.09 1006.37 1006.55 1006.80 1007.08 1007.22 1007.33 1007.59 1007.76 1007.88 1007.75 1007.83 1007.75 1008.00 1008.12 1008.20 1008.43 1008.88 1009.21 1009.73 1010.87 1011.56 1012.00 1012.42 1012.66 1012.94 1013.41 1013.86 1014.93 1015.60
1003.02 1003.55 1004.01 1004.31 1004.62 1004.98 1005.18 1005.19 1005.27 1005.39 1005.57 1005.77 1005.89 1006.01 1006.28 1006.42 1006.72 1006.99 1007.05 1007.36 1007.53 1007.72 1007.83 1007.87 1007.89 1007.98 1008.06 1008.23 1008.29 1008.65 1009.19 1009.52 1009.93 1010.72 1011.76 1012.37 1012.79 1013.24 1013.87 1014.59 1015.15 1015.94 1016.93
1002.94 1003.54 1003.87 1004.27 1004.65 1004.98 1005.14 1005.14 1005.23 1005.43 1005.63 1005.83 1005.91 1005.95 1006.16 1006.38 1006.68 1006.94 1007.11 1007.33 1007.62 1007.75 1007.78 1007.80 1007.96 1008.03 1008.18 1008.42 1008.68 1009.06 1009.45 1009.86 1010.51 1011.17 1012.05 1012.75 1013.23 1013.78 1014.31 1014.95 1016.04 1017.05 1017.91
1002.86 1003.40 1003.65 1004.20 1004.57 1004.85 1005.10 1005.10 1005.31 1005.54 1005.73 1005.95 1006.05 1006.23 1006.48 1006.67 1006.89 1007.17 1007.27 1007.48 1007.78 1007.92 1007.89 1007.92 1008.08 1008.22 1008.31 1008.49 1008.88 1009.45 1009.80 1010.26 1010.73 1011.38 1012.10 1012.85 1013.54 1014.27 1014.81 1015.59 1016.29 1017.59 1018.71
1002.65 1003.09 1003.48 1003.96 1004.41 1004.82 1005.14 1005.31 1005.56 1005.81 1006.04 1006.12 1006.50 1006.67 1006.96 1007.19 1007.34 1007.30 1007.45 1007.74 1007.91 1008.09 1008.23 1008.42 1008.53 1008.60 1008.73 1008.84 1009.04 1009.36 1009.57 1009.95 1010.74 1011.34 1012.06 1012.77 1013.76 1014.29 1015.16 1015.80 1016.68 1017.87 1019.05
1002.50 1002.93 1003.29 1003.82 1004.29 1004.78 1005.13 1005.52 1005.86 1006.14 1006.39 1006.62 1006.92 1007.10 1007.44 1007.79 1007.78 1007.62 1007.66 1007.92 1008.10 1008.20 1008.35 1008.59 1008.77 1008.82 1008.97 1009.29 1009.42 1009.58 1009.89 1010.21 1010.55 1011.05 1011.84 1012.82 1013.71 1014.49 1015.07 1016.35 1017.32 1017.65 1018.46
1002.33 1002.80 1003.19 1003.68 1004.14 1004.77 1005.20 1005.68 1006.03 1006.39 1006.70 1006.97 1007.30 1007.59 1007.93 1008.33 1008.12 1007.92 1007.88 1008.02 1008.25 1008.41 1008.50 1008.79 1009.05 1009.31 1009.48 1009.57 1009.74 1010.14 1010.52 1010.86 1011.28 1011.67 1012.23 1013.01 1013.82 1014.80 1015.26 1016.12 1017.11 1018.09 1019.11
1002.15 1002.50 1003.06 1003.58 1004.17 1004.78 1005.27 1005.74 1006.08 1006.54 1006.99 1007.24 1007.42 1007.96 1008.26 1008.58 1008.40 1008.13 1008.27 1008.44 1008.68 1008.92 1008.98 1009.09 1009.30 1009.61 1009.90 1009.99 1010.14 1010.61 1011.10 1011.79 1012.22 1012.54 1013.03 1013.74 1014.64 1015.20 1015.72 1016.48 1017.69 1018.35 1019.70
1001.84 1002.23 1002.77 1003.39 1003.94 1004.71 1005.12 1005.63 1006.03 1006.52 1006.94 1007.30 1007.73 1008.02 1008.31 1008.60 1008.50 1008.52 1008.65 1008.89 1009.12 1009.30 1009.47 1009.59 1009.70 1009.87 1010.24 1010.47 1010.62 1011.09 1011.53 1012.29 1012.88 1013.78 1014.58 1015.15 1015.42 1016.23 1016.64 1016.93 1017.43 1018.20 1019.06
1001.35 1002.01 1002.66 1003.30 1003.83 1004.49 1005.14 1005.60 1006.06 1006.69 1007.24 1007.66 1007.97 1008.32 1008.51 1008.70 1008.92 1008.89 1009.08 1009.30 1009.38 1009.65 1009.88 1010.06 1010.29 1010.33 1010.65 1010.97 1011.30 1011.75 1012.20 1012.76 1013.55 1014.25 1014.95 1015.73 1016.34 1016.69 1017.02 1017.17 1017.58 1017.85 1018.33
1001.08 1001.80 1002.58 1003.35 1004.05 1004.66 1005.18 1005.75 1006.23 1006.77 1007.29 1007.81 1008.24 1008.56 1008.65 1008.86 1008.99 1009.05 1009.30 1009.43 1009.62 1009.96 1010.10 1010.32 1010.58 1010.75 1011.00 1011.31 1011.73 1012.30 1013.01 1013.45 1014.11 1014.77 1015.54 1016.27 1016.73 1017.05 1017.33 1017.33 1017.52 1017.74 1017.78
1001.08 1001.86 1002.62 1003.40 1004.05 1004.67 1005.26 1005.87 1006.45 1006.87 1007.24 1007.69 1008.16 1008.65 1008.80 1009.00 1009.30 1009.38 1009.43 1009.68 1010.00 1010.30 1010.39 1010.51 1010.71 1011.06 1011.36 1011.75 1012.15 1012.68 1013.29 1013.84 1014.42 1015.09 1015.74 1016.26 1016.64 1016.99 1017.29 1017.47 1017.59 1017.86 1018.17
1001.02 1001.78 1002.53 1003.35 1004.26 1004.84 1005.40 1005.89 1006.32 1006.81 1007.17 1007.44 1008.02 1008.50 1008.69 1009.13 1009.54 1009.78 1009.98 1010.16 1010.29 1010.71 1010.95 1011.09 1011.22 1011.45 1011.71 1012.14 1012.74 1013.05 1013.36 1014.01 1014.25 1014.81 1015.50 1015.99 1016.54 1017.05 1017.27 1017.51 1017.88 1018.19 1018.58
1000.73 1001.53 1002.33 1003.13 1003.88 1004.81 1005.49 1006.07 1006.15 1006.32 1006.43 1006.93 1007.55 1008.00 1008.39 1008.92 1009.40 1009.58 1009.79 1010.12 1010.48 1010.73 1011.16 1011.37 1011.58 1011.82 1012.21 1012.59 1012.82 1013.08 1013.44 1014.01 1014.53 1014.88 1015.39 1015.97 1016.36 1016.71 1017.20 1017.57 1017.88 1018.33 1018.67
1000.56 1001.30 1002.03 1002.90 1003.77 1004.53 1005.32 1006.23 1006.40 1006.34 1006.40 1006.82 1007.27 1007.63 1008.17 1008.57 1009.10 1009.49 1009.83 1010.25 1010.52 1010.80 1011.14 1011.49 1011.75 1012.02 1012.25 1012.58 1012.87 1013.21 1013.56 1013.94 1014.40 1014.78 1015.21 1015.63 1016.14 1016.58 1017.11 1017.43 1017.59 1018.05 1018.57
1000.05 1000.90 1001.75 1002.42 1003.27 1004.12 1004.94 1005.74 1006.40 1006.82 1006.75 1007.08 1007.22 1007.59 1007.99 1008.27 1008.97 1009.52 1009.80 1010.31 1010.57 1010.83 1011.03 1011.41 1011.68 1012.03 1012.33 1012.63 1012.84 1013.06 1013.37 1013.65 1014.03 1014.48 1014.91 1015.37 1015.85 1016.39 1016.76 1017.01 1017.38 1017.74 1018.00
999.46 1000.22 1001.14 1001.94 1002.64 1003.40 1004.12 1004.90 1005.49 1006.16 1006.70 1007.23 1007.55 1007.82 1007.91 1008.23 1008.74 1009.35 1009.92 1010.45 1011.26 1011.13 1010.98 1011.14 1011.38 1011.72 1012.11 1012.41 1012.64 1012.88 1013.21 1013.54 1013.90 1014.21 1014.68 1015.06 1015.44 1015.73 1016.16 1016.37 1016.74 1017.02 1017.36
998.99 999.91 1000.38 1001.22 1001.94 1002.60 1003.43 1004.24 1004.82 1005.39 1005.91 1006.46 1007.40 1007.95 1008.31 1008.60 1008.97 1009.41 1009.76 1009.82 1010.26 1010.59 1010.64 1010.80 1010.93 1011.21 1011.57 1011.87 1012.11 1012.41 1012.65 1012.98 1013.11 1013.64 1014.02 1014.32 1014.59 1014.98 1015.24 1015.56 1015.93 1016.24 1016.62
998.38 999.05 999.83 1000.53 1001.36 1002.15 1002.79 1003.49 1004.34 1004.86 1005.43 1005.87 1006.50 1007.17 1008.14 1008.85 1009.40 1009.65 1009.73 1009.55 1009.59 1009.71 1009.92 1010.12 1010.31 1010.54 1010.79 1011.08 1011.40 1011.64 1012.02 1012.38 1012.68 1012.94 1013.18 1013.36 1013.60 1013.99 1014.34 1014.65 1015.04 1015.53 1015.93
997.61 998.51 999.01 999.79 1000.43 1001.14 1001.93 1002.52 1003.20 1003.92 1004.61 1005.27 1005.69 1006.27 1006.68 1007.51 1008.02 1008.40 1008.62 1008.67 1008.61 1008.78 1009.02 1009.27 1009.55 1009.89 1010.10 1010.27 1010.47 1010.79 1011.08 1011.31 1011.59 1011.84 1012.15 1012.50 1012.81 1013.15 1013.19 1013.41 1013.93 1014.44 1014.88
997.46 997.49 998.22 998.74 999.43 1000.09 1000.76 1001.42 1002.16 1002.72 1003.36 1004.07 1004.81 1005.68 1006.45 1006.73 1006.79 1006.91 1007.09 1007.23 1007.34 1007.56 1007.84 1008.17 1008.44 1008.68 1008.94 1009.31 1009.56 1009.81 1010.02 1010.22 1010.42 1010.73 1011.08 1011.33 1011.67 1011.99 1012.32 1012.75 1013.07 1013.48 1013.94
996.91 997.75 997.62 998.09 998.67 999.25 1000.00 1000.47 1001.03 1001.70 1002.17 1002.81 1003.62 1004.51 1005.60 1005.85 1005.69 1005.74 1005.84 1005.99 1006.33 1006.57 1006.84 1007.14 1007.36 1007.59 1007.78 1007.93 1008.07 1008.44 1008.73 1008.83 1009.02 1009.45 1009.94 1010.32 1010.68 1010.99 1011.34 1011.69 1011.95 1012.43 1013.11
996.69 997.26 998.03 997.90 998.56 999.14 999.46 999.90 1000.26 1000.67 1001.18 1001.67 1002.28 1002.99 1003.71 1004.11 1004.28 1004.40 1004.51 1004.85 1005.28 1005.57 1005.85 1006.07 1006.28 1006.36 1006.52 1006.69 1006.71 1006.86 1007.02 1007.17 1007.46 1007.87 1008.28 1008.80 1009.16 1009.51 1009.83 1010.29 1010.64 1010.98 1011.41
997.09 996.91 997.51 998.06 998.17 998.48 999.05 999.56 999.74 999.99 1000.28 1000.64 1001.02 1001.56 1002.13 1002.58 1002.92 1003.12 1003.36 1003.72 1004.03 1004.40 1004.65 1004.91 1005.12 1005.21 1005.37 1005.51 1005.66 1005.65 1005.73 1006.04 1006.21 1006.42 1006.85 1007.29 1007.62 1007.94 1008.27 1008.57 1009.11 1009.70 1010.34
997.75 997.68 997.85 997.89 998.26 998.52 998.49 998.69 998.77 999.04 999.27 999.46 999.77 1000.12 1000.59 1001.02 1001.31 1001.58 1001.93 1002.35 1002.70 1002.96 1003.17 1003.47 1003.63 1003.84 1004.02 1004.16 1004.27 1004.44 1004.73 1004.98 1005.26 1005.58 1005.77 1006.23 1006.55 1006.83 1007.10 1007.43 1007.89 1008.49 1009.14
Wind_Speed
7 6 6 6 6 5 4 4 4 3 5 5 5 5 5 5 5 4 3 4 4 4 3 4 4 3 3 3 3 3 3 3 7 3 3 3 3 7 9 13 15 16 15
7 6 6 6 5 5 4 4 4 4 4 5 5 5 5 6 5 4 4 4 5 4 4 4 4 3 4 3 3 4 5 3 9 9 4 2 5 8 10 12 11 11 14
6 7 6 6 5 4 4 4 3 4 4 3 3 5 5 6 5 4 3 5 4 3 4 3 3 5 4 4 4 6 5 5 8 8 5 3 4 10 11 11 12 12 10
7 7 8 6 6 5 4 4 4 3 5 4 4 4 4 5 5 4 4 5 5 3 2 3 5 7 6 5 5 7 7 9 9 8 8 7 6 9 12 13 12 9 10
9 8 8 6 6 5 5 4 4 3 4 4 5 5 5 4 3 5 5 6 6 5 3 4 4 6 10 6 4 5 9 7 8 9 8 7 8 9 12 9 12 9 7
8 8 7 7 7 6 5 5 5 4 5 6 6 6 5 4 3 8 7 6 5 5 5 4 3 3 5 8 8 6 8 11 10 8 6 11 9 10 10 11 12 11 5
8 8 8 7 7 6 6 6 5 5 5 6 6 6 6 5 5 7 8 4 4 4 5 5 5 4 7 8 9 9 9 9 9 11 13 11 13 14 13 12 11 7 4
9 9 8 6 7 6 6 6 5 4 6 5 5 6 6 3 3 6 7 5 5 5 4 5 6 6 6 9 9 10 10 9 11 9 12 12 14 12 11 10 9 8 9
11 10 9 6 9 7 7 6 4 6 5 3 5 6 6 3 0 8 6 5 6 5 4 5 6 8 8 10 10 11 12 10 13 15 14 17 14 14 11 10 8 11 7
11 9 10 9 10 8 7 7 4 5 5 5 5 5 7 4 5 9 6 4 5 4 4 4 7 9 10 11 10 11 11 10 12 13 11 13 12 11 10 6 10 11 7
11 9 7 8 10 8 7 4 6 6 6 5 6 4 5 4 3 6 9 4 4 3 3 3 3 10 12 11 9 9 9 10 12 11 9 8 7 6 3 4 5 9 6
9 9 8 9 8 7 8 6 6 7 7 7 6 3 2 3 3 2 8 7 7 4 3 3 3 9 11 12 9 15 15 11 9 8 8 7 6 5 3 4 6 5 2
10 11 11 9 8 8 8 8 6 5 6 6 6 5 3 2 3 5 9 9 9 4 3 5 10 10 12 10 14 16 12 8 8 8 7 6 5 4 4 3 3 3 3
11 11 11 11 8 6 5 6 6 6 5 6 6 6 4 3 3 2 4 5 7 6 6 4 7 8 9 8 9 8 6 8 8 7 6 5 4 4 3 3 2 2 2
12 12 11 9 11 7 5 5 6 6 8 8 7 7 6 6 5 7 6 6 5 6 6 3 5 5 6 6 5 6 6 7 7 6 4 5 4 5 4 3 3 2 3
12 11 10 9 7 8 7 3 7 4 9 9 9 8 4 5 12 11 10 11 10 10 3 3 4 6 9 8 7 6 6 7 5 6 6 6 6 6 5 3 3 4 4
14 12 9 10 9 8 7 6 5 4 7 0 9 12 11 9 14 13 10 11 12 8 2 3 4 6 5 6 6 4 7 6 5 7 7 7 5 5 6 6 5 4 4
14 16 11 10 9 8 8 7 6 5 5 4 4 5 10 14 14 14 12 11 3 2 2 4 4 5 5 6 5 4 4 4 6 6 5 5 6 6 5 6 7 8 6
12 11 12 10 9 10 8 6 6 6 5 5 3 3 5 5 5 7 12 5 7 6 4 4 4 5 5 6 6 5 6 6 9 8 8 8 8 7 7 8 7 8 6
12 16 12 10 9 9 8 8 7 6 5 7 7 9 6 5 5 6 7 7 5 6 7 6 5 6 6 7 7 7 6 5 6 7 8 8 9 8 9 8 8 7 8
11 11 13 11 10 10 9 10 10 9 8 7 7 7 13 11 11 10 10 10 9 8 8 8 7 5 6 7 8 8 8 8 8 9 9 8 8 8 9 8 8 8 7
9 13 13 12 11 11 11 10 10 10 10 10 8 6 11 9 10 11 12 12 12 10 9 9 8 8 8 8 8 8 9 10 9 9 9 10 10 10 9 8 8 7 7
8 9 12 11 11 11 8 10 10 10 10 11 10 9 9 11 9 11 12 12 11 11 10 9 10 10 9 9 9 10 10 10 10 10 10 10 9 9 9 10 10 9 7
5 7 9 9 8 7 10 10 10 10 11 11 11 11 11 12 12 13 12 11 10 11 11 11 11 14 12 11 10 10 11 10 9 11 16 12 12 11 11 11 11 13 9
5 4 7 6 6 8 7 7 8 9 10 11 11 10 11 12 12 12 11 11 11 11 13 12 11 15 16 16 15 15 12 13 14 11 10 13 14 15 13 11 10 7 5
8 8 6 2 5 6 8 8 10 10 11 11 11 12 12 13 13 13 12 12 11 12 14 11 14 19 19 16 19 18 13 13 12 12 10 9 11 11 10 12 13 9 8
Wind_Direction
136 149 141 135 147 138 144 174 177 161 157 165 165 160 156 158 183 166 165 165 172 155 167 165 185 185 168 193 144 149 145 122 126 98 83 108 80 128 115 116 125 126 125
152 147 144 138 136 126 134 159 169 162 159 173 175 165 181 174 174 168 197 147 158 176 185 189 194 192 125 141 144 148 118 134 136 128 111 107 110 109 100 105 110 121 124
144 134 141 138 132 146 156 153 164 151 173 191 150 160 148 158 157 189 159 162 179 176 182 177 143 123 101 101 108 100 107 110 119 126 116 99 97 119 109 104 108 105 108
137 146 143 146 160 161 164 156 153 166 167 176 166 150 139 131 131 131 116 114 127 120 154 182 123 130 129 105 88 103 120 125 129 120 122 121 117 122 116 120 106 106 115
158 158 145 154 156 150 139 132 137 145 161 142 114 91 88 97 120 121 116 108 115 116 100 105 110 137 126 124 124 135 137 141 136 133 133 132 130 136 131 125 116 116 91
162 162 154 146 150 154 135 122 128 118 118 111 101 102 90 77 353 129 125 121 131 132 114 101 110 111 115 144 139 148 162 152 149 150 136 140 136 128 125 128 131 134 115
155 160 158 155 147 161 142 133 141 131 113 111 107 107 90 92 49 130 127 126 135 129 125 117 99 114 127 107 101 101 96 110 131 141 140 145 131 138 133 136 139 130 120
158 163 162 170 144 146 138 138 143 125 123 126 111 109 111 77 43 118 101 94 88 96 111 109 104 96 110 126 113 100 90 100 120 131 131 135 129 134 132 134 126 101 98
164 176 166 156 145 147 147 149 138 120 121 128 125 129 115 102 116 118 99 81 79 75 79 87 123 119 127 124 118 109 92 80 64 81 99 106 109 112 125 126 118 119 121
168 181 174 153 151 155 153 152 133 134 133 125 118 130 127 124 93 115 104 101 96 90 64 61 77 126 132 122 131 125 112 113 108 103 100 90 101 102 102 112 142 143 142
175 172 151 151 152 149 144 139 130 124 118 114 121 120 112 114 108 142 127 115 123 101 106 95 86 121 127 120 121 127 121 114 106 111 109 103 110 119 101 122 140 152 150
155 160 141 141 153 145 145 135 131 133 135 133 128 122 120 125 132 136 133 130 111 130 129 102 110 123 127 118 111 115 108 109 110 110 116 123 145 147 133 127 151 183 225
137 146 145 144 144 148 141 142 133 136 148 145 145 158 169 123 98 85 128 129 129 112 106 107 121 109 112 98 125 127 120 114 121 132 144 148 162 153 138 111 90 93 34
147 147 150 142 139 142 131 145 144 154 154 156 155 167 167 142 132 137 134 119 102 85 96 78 103 92 94 119 130 132 134 135 149 151 148 140 125 138 158 144 115 93 86
151 153 156 154 154 147 135 151 168 186 180 165 172 172 170 172 180 170 163 149 139 142 122 102 116 121 123 138 136 130 132 131 144 160 148 155 158 158 165 151 144 157 176
156 158 161 158 158 156 150 122 39 21 197 184 163 168 177 156 151 166 165 134 141 151 99 125 125 139 154 156 159 152 154 158 158 162 167 175 179 177 175 158 167 179 186
161 164 160 161 165 159 158 160 162 29 68 82 186 173 174 173 163 171 167 144 161 140 123 157 148 154 163 166 169 157 174 180 157 179 180 187 180 177 169 197 199 192 217
163 161 164 168 171 167 170 174 161 163 178 193 91 196 185 169 174 172 145 122 133 289 161 171 173 168 166 178 182 185 179 170 181 189 184 182 183 185 188 203 201 211 214
163 170 168 170 171 170 167 161 172 169 174 166 114 81 83 100 128 152 170 177 181 195 195 192 183 178 181 185 193 195 192 189 192 189 196 197 200 192 208 210 208 207 189
174 174 169 167 163 170 173 170 172 180 171 174 178 184 137 111 167 187 199 209 189 202 202 204 195 189 192 194 198 205 205 196 194 197 205 207 207 204 213 209 204 203 211
175 172 171 175 174 177 178 181 181 182 187 188 195 177 175 175 188 194 198 206 208 204 201 207 208 196 198 202 205 204 206 212 207 204 202 202 198 203 211 213 216 214 213
198 177 180 181 183 185 186 183 184 186 189 192 198 185 178 199 193 196 202 206 210 212 209 207 211 210 207 202 203 205 212 215 215 209 210 209 207 213 213 213 216 211 204
186 199 188 189 189 186 179 189 191 190 195 194 189 186 179 204 201 203 207 208 208 210 210 209 213 219 216 213 206 205 208 214 216 207 209 210 210 212 210 213 215 214 197
159 177 200 196 189 192 195 194 200 198 192 197 191 191 191 201 207 208 207 206 209 214 214 215 216 222 223 220 218 221 222 218 201 204 203 205 206 203 209 212 211 214 206
21 187 176 205 199 182 176 201 206 197 199 199 200 193 195 200 207 211 211 209 210 211 215 216 220 222 217 220 224 222 216 208 213 207 204 211 213 208 208 213 212 208 166
33 29 24 172 199 193 204 194 203 203 204 206 201 198 195 199 205 208 208 206 210 212 213 214 219 220 226 224 227 230 221 212 214 217 212 209 212 215 213 215 212 203 182